GEFSSE_con_cape1000_306.txt.gz
Probability
23 45 81 77 77 77 74 77 77 77 77 81 84 77 71 77 68 65 61 58 61 61 58 55 55 65 68 71 65 65 65 65 61 61 61 68 68 71 68 55 52 52 61
29 42 81 84 77 71 68 71 74 74 77 81 74 74 74 74 61 65 65 61 61 61 58 55 48 58 58 58 65 74 68 68 61 58 61 52 52 58 58 52 45 48 55
29 45 68 81 84 74 74 77 77 77 74 77 71 68 74 68 71 65 65 71 68 65 61 55 48 55 55 58 52 61 71 71 65 58 45 23 42 58 55 55 52 48 52
26 32 48 71 71 68 74 65 74 81 77 74 74 68 71 71 71 68 65 61 61 58 48 48 39 45 48 52 52 48 55 55 52 42 13 13 13 55 55 48 45 48 48
13 32 52 65 61 68 71 71 81 81 77 71 74 77 74 74 65 65 65 58 58 52 45 42 39 32 42 48 42 45 48 55 52 26 6 3 6 55 42 48 48 45 45
10 35 48 68 65 68 65 77 81 74 74 71 74 77 74 71 65 61 55 55 55 48 39 39 35 42 39 42 42 42 48 48 35 10 0 6 10 52 55 42 35 39 39
6 26 45 65 65 61 71 71 77 71 74 71 71 81 74 71 68 65 55 52 45 45 42 45 42 39 39 39 39 45 45 45 19 10 3 3 19 58 61 42 35 35 35
10 26 42 65 61 61 68 71 77 71 74 74 71 77 77 74 71 71 55 45 42 32 29 35 42 42 42 42 45 39 39 45 10 10 3 3 29 61 48 39 39 35 39
13 29 39 48 55 68 65 74 74 71 74 74 77 74 71 68 65 61 55 45 42 32 32 32 39 39 39 45 42 45 48 48 16 6 10 6 45 58 45 45 39 39 35
10 19 26 32 39 42 55 65 77 74 68 61 65 68 65 68 61 55 58 52 48 42 35 39 35 39 42 45 45 45 45 35 10 10 6 10 48 55 45 39 39 42 39
10 10 16 26 23 26 32 42 52 58 58 58 58 68 58 35 39 45 48 45 45 48 42 35 39 35 39 42 39 42 39 19 13 6 3 26 55 55 52 42 42 39 48
10 10 13 16 10 16 23 32 29 32 32 32 26 29 26 23 10 26 35 52 55 55 52 52 45 45 39 19 16 32 19 6 6 3 6 48 65 55 55 55 52 42 42
0 16 13 10 10 10 6 13 19 16 19 19 16 16 13 16 10 13 10 26 32 39 23 32 23 26 13 3 3 13 13 6 0 6 10 52 65 58 52 52 52 45 42
3 6 10 10 13 13 13 19 19 19 19 13 16 13 10 10 10 10 6 10 10 10 10 10 10 10 6 3 0 0 6 3 0 3 6 52 61 58 55 58 52 58 42
3 6 10 10 10 6 6 13 19 19 16 13 16 16 10 10 10 6 6 6 3 0 0 0 0 0 0 0 0 6 0 3 3 3 6 58 65 65 58 55 58 55 45
6 3 6 10 3 10 10 13 13 16 10 10 13 13 13 13 13 6 6 6 3 3 0 0 0 0 0 0 6 3 6 3 3 0 3 16 58 68 65 65 65 61 52
3 10 10 6 10 10 10 13 16 13 19 16 13 16 16 13 13 13 10 10 6 6 13 10 6 6 6 10 13 10 10 10 13 10 6 6 13 52 68 71 71 68 58
6 6 13 16 10 13 13 13 13 19 19 10 16 19 16 13 13 16 10 10 10 10 13 10 16 13 13 13 13 13 13 10 13 16 13 13 10 16 29 68 71 65 58
10 10 10 13 13 16 19 19 19 19 23 19 23 19 16 13 23 16 13 10 10 10 13 13 13 13 10 10 10 10 10 10 10 13 10 13 10 6 10 16 68 61 65
6 3 6 6 10 16 26 19 19 19 19 23 26 23 19 23 23 19 16 16 19 19 16 19 16 16 10 13 13 13 13 13 10 6 10 6 10 10 10 3 10 23 58
3 3 10 10 10 10 19 19 23 13 16 16 19 19 16 23 23 19 19 16 23 23 23 19 10 13 16 16 19 16 10 10 13 10 6 3 3 6 6 6 6 3 10
6 6 10 10 10 13 16 16 23 16 13 13 13 23 23 23 26 29 16 10 10 13 10 10 13 16 23 23 23 13 10 10 10 10 6 6 3 3 6 6 3 3 3
6 10 10 10 13 13 19 19 19 16 13 13 19 13 16 23 26 29 19 10 13 13 13 13 16 16 16 19 19 13 10 6 6 6 6 6 6 6 6 10 6 10 10
6 10 13 13 19 19 19 23 19 16 13 16 13 13 16 26 29 32 19 13 19 23 13 13 16 16 13 13 13 10 6 3 3 3 6 6 6 10 6 10 10 10 10
16 13 13 16 29 23 32 23 19 19 13 13 16 23 19 23 29 32 26 19 23 19 23 19 16 16 16 19 16 16 10 6 6 3 6 6 6 6 10 3 3 3 3
23 23 19 23 29 35 32 23 19 23 23 19 29 26 23 29 29 26 23 23 26 23 23 23 19 23 19 23 26 23 16 13 10 6 6 6 6 10 6 6 6 10 3

GEFSSE_con_cape1000_312.txt.gz
Probability
10 29 68 68 71 74 77 81 87 84 84 84 81 77 77 74 71 71 61 68 68 65 71 68 68 71 61 55 58 65 61 55 58 61 65 71 61 61 58 55 55 52 65
3 39 71 68 74 77 71 84 77 74 74 74 74 77 77 77 68 68 61 61 61 61 61 61 68 61 61 65 61 61 61 58 61 52 48 61 65 58 55 58 55 55 61
19 39 58 77 77 81 81 81 81 71 65 71 77 74 74 74 68 61 65 65 55 52 58 65 68 65 58 58 65 65 61 65 58 58 48 32 42 65 55 58 61 61 58
23 32 42 71 87 87 84 77 74 68 68 65 77 71 68 71 61 68 61 61 58 48 48 55 52 55 45 52 55 55 68 55 48 35 13 19 29 48 55 55 61 61 58
23 29 42 65 84 81 71 71 77 77 68 65 77 71 74 61 65 68 58 58 48 48 42 42 45 42 39 48 52 55 55 55 42 19 13 10 26 48 45 48 48 52 52
19 26 35 58 68 68 74 71 74 68 74 74 74 74 68 65 65 58 61 52 52 48 35 26 35 45 55 48 52 52 55 42 13 10 13 13 23 45 45 42 39 42 45
16 26 39 61 65 71 65 71 74 68 68 68 74 71 71 61 58 58 55 45 45 42 39 32 42 48 55 55 61 52 48 39 6 10 10 13 23 45 39 42 39 42 45
16 23 35 39 48 61 68 68 71 65 61 58 65 61 65 55 52 45 42 39 35 29 29 32 42 45 48 52 58 52 48 39 10 10 6 10 29 48 39 42 39 35 39
16 26 32 39 39 55 71 71 71 68 71 65 65 65 61 58 58 45 42 35 39 35 32 35 39 42 52 58 55 52 52 52 13 13 6 13 29 48 42 45 45 39 39
16 23 26 32 26 29 35 58 55 65 65 65 65 61 58 61 58 55 65 55 45 48 39 39 39 48 48 55 52 55 45 45 10 16 19 13 35 42 45 52 42 45 42
16 13 16 16 19 19 26 32 39 55 58 55 55 61 48 29 32 45 48 58 45 42 35 32 35 39 42 39 52 42 29 16 6 19 16 23 32 35 42 45 48 48 45
10 10 10 10 13 13 26 23 29 35 35 32 26 26 16 10 16 32 42 45 42 45 39 39 35 35 23 16 19 32 19 6 3 3 10 32 42 45 45 48 48 45 42
6 6 6 10 10 13 13 13 16 16 19 10 10 6 6 6 6 10 16 23 26 32 26 26 26 19 16 13 16 13 13 6 6 6 6 35 48 52 48 48 45 42 39
3 3 3 3 10 10 10 10 13 16 6 6 6 6 6 6 6 6 6 10 13 16 13 13 16 13 10 10 6 10 10 10 10 6 10 32 48 52 55 58 58 48 39
0 3 0 0 6 6 3 6 6 6 10 10 3 3 6 3 3 3 3 3 6 3 10 10 6 10 10 10 10 10 10 10 10 10 10 26 45 55 52 55 58 52 55
0 0 0 3 0 3 3 3 3 3 3 10 6 6 6 3 3 3 3 3 3 3 3 3 6 6 10 10 10 6 10 6 10 10 10 23 32 55 52 58 61 61 61
0 0 0 3 3 3 3 3 3 3 3 3 3 10 6 6 3 3 3 3 3 3 3 0 0 0 6 10 10 10 10 10 10 6 10 16 19 32 48 65 71 61 58
0 0 0 3 3 3 3 3 6 6 3 3 3 6 6 6 3 3 3 3 3 6 6 3 3 10 6 10 10 10 10 13 6 6 6 13 13 16 23 48 61 61 58
0 0 0 3 3 3 3 3 3 3 6 10 10 10 10 6 3 3 6 6 6 3 6 10 10 10 10 10 10 10 10 6 10 10 10 13 16 16 16 19 35 48 61
3 3 0 0 0 3 6 3 6 6 6 10 10 10 10 10 16 6 6 6 3 10 10 10 10 10 10 10 10 16 13 10 10 10 10 16 19 19 16 13 13 19 32
3 3 3 3 3 3 13 13 10 6 6 10 3 3 6 10 16 16 13 3 6 10 10 10 10 6 6 10 10 16 13 13 16 10 10 6 10 19 19 13 10 13 13
6 6 6 6 6 6 6 6 6 10 6 10 13 10 10 10 16 16 10 10 3 6 6 3 6 10 10 10 16 13 13 16 10 10 13 10 13 16 16 6 10 13 13
6 6 6 6 6 6 6 6 3 6 6 6 10 16 13 16 19 19 10 6 3 0 0 3 3 3 3 10 13 10 6 6 6 10 6 6 10 6 0 3 13 10 13
3 3 3 0 0 0 0 3 6 6 6 6 6 6 10 10 19 23 13 3 6 6 3 3 6 6 3 6 6 3 6 6 3 10 10 6 6 10 10 3 6 6 10
3 3 0 0 0 0 0 0 0 3 3 3 3 6 6 6 16 23 19 6 10 10 6 10 10 6 6 6 6 6 0 3 0 6 6 6 13 10 6 3 3 6 10
3 3 0 0 0 0 0 0 0 0 0 3 3 3 10 10 13 19 19 19 10 16 13 10 6 3 3 6 6 3 10 10 10 6 10 10 10 6 13 13 13 13 10

GEFSSE_con_cape1000_318.txt.gz
Probability
23 32 65 74 77 77 77 81 65 74 77 77 71 77 77 77 77 77 77 74 71 61 61 65 65 77 61 58 58 58 61 55 55 58 58 55 55 58 58 58 58 48 61
26 29 68 74 77 77 74 74 68 58 65 68 71 77 74 74 68 68 68 61 58 58 55 58 68 61 58 65 55 55 58 48 61 65 55 52 55 58 58 61 61 58 61
26 35 58 74 77 87 77 61 55 61 58 61 61 71 77 68 68 61 61 58 55 55 48 52 45 55 55 52 55 55 55 52 45 45 48 26 26 58 61 61 55 58 65
23 42 48 84 77 77 74 61 61 58 58 68 68 71 74 71 68 71 55 58 55 55 61 52 48 48 55 52 55 55 52 42 42 32 19 13 13 52 58 61 58 58 61
26 35 52 81 77 71 71 68 65 58 68 61 71 74 71 68 68 68 61 48 45 42 48 42 45 45 48 52 55 52 52 42 26 19 13 23 26 42 61 61 61 65 61
23 29 42 71 65 65 71 65 58 52 55 65 65 68 61 52 61 61 58 45 42 39 42 39 39 52 52 52 48 45 42 35 23 3 23 23 29 39 45 52 52 61 58
23 29 39 65 61 68 65 65 58 55 58 55 55 58 58 58 65 48 45 42 35 32 35 39 45 48 45 45 48 48 45 32 16 16 13 19 42 42 39 39 45 45 45
16 29 35 52 55 58 58 61 58 58 55 55 55 61 52 48 48 39 42 39 29 32 35 39 42 42 48 48 48 45 39 26 6 6 16 13 42 45 42 35 39 39 42
6 19 29 29 42 52 61 65 58 65 61 68 68 58 55 42 45 39 42 42 29 29 29 39 39 35 45 45 48 48 32 23 16 16 10 19 29 39 42 39 32 39 39
3 10 23 23 32 32 48 65 58 61 58 58 58 52 48 52 52 45 39 42 39 39 35 32 39 39 42 45 42 42 32 16 13 13 16 23 32 32 42 45 45 45 42
6 13 19 19 23 26 23 39 52 58 58 52 52 45 48 42 32 35 32 42 42 48 42 39 39 45 48 42 42 35 32 16 10 16 19 26 35 39 39 42 42 52 52
10 16 19 16 19 23 10 48 42 45 65 55 45 42 48 45 35 23 32 39 35 32 39 35 39 45 39 42 26 29 26 13 10 10 19 39 39 42 45 48 45 39 42
10 10 23 26 29 23 35 23 39 45 52 42 42 39 52 39 29 29 23 39 42 32 32 39 32 29 26 29 32 32 26 16 13 13 29 39 42 52 45 45 52 48 45
6 6 10 23 39 39 32 32 32 39 39 39 42 35 39 39 32 32 39 29 35 35 52 45 48 35 26 26 26 26 26 23 23 19 52 45 39 52 48 48 52 52 52
13 10 16 19 39 42 48 45 23 39 32 35 39 39 26 39 32 32 39 42 29 39 42 48 39 42 42 35 29 23 16 16 19 23 39 45 45 52 52 55 58 55 48
13 10 16 29 48 58 58 52 48 42 61 35 39 29 35 42 45 32 35 42 42 42 35 42 39 45 39 35 23 26 29 19 29 29 32 48 45 45 45 55 58 58 52
13 10 16 29 35 52 52 45 39 39 42 35 42 45 45 42 48 42 42 48 45 39 35 48 42 42 48 29 29 23 32 35 32 39 39 42 48 52 58 55 58 61 55
13 13 29 10 35 52 58 52 42 48 45 42 42 52 48 52 48 61 58 55 55 52 42 55 52 39 42 42 39 39 39 52 45 45 45 52 58 52 52 55 55 61 58
19 32 35 32 32 48 55 55 45 55 48 48 52 48 52 52 55 58 55 55 48 48 48 39 45 48 48 55 48 52 48 45 48 39 48 52 58 65 61 65 58 55 48
26 39 42 55 48 48 48 55 52 48 48 52 58 58 55 52 52 55 61 48 52 45 45 42 48 58 58 61 29 42 45 48 52 68 55 55 61 52 55 58 68 58 45
39 48 52 52 61 61 55 45 48 48 45 52 61 61 55 55 58 58 45 55 52 48 52 39 42 42 48 58 35 39 39 35 42 55 55 52 48 45 61 68 61 58 55
45 48 58 55 55 58 58 58 65 52 45 45 45 61 58 55 58 55 61 55 58 58 58 48 52 45 48 45 48 42 23 26 45 16 42 45 45 48 42 42 58 61 61
48 42 42 52 52 55 55 52 48 55 52 45 45 55 61 55 55 61 65 61 68 55 61 58 58 52 45 48 39 23 13 13 16 26 35 32 48 52 42 42 45 52 55
39 39 42 55 61 61 61 52 48 61 55 55 52 55 58 55 55 61 61 61 65 55 58 48 45 42 52 39 42 42 42 35 19 19 26 35 35 48 48 35 32 42 45
32 32 45 61 65 61 61 58 55 48 48 48 55 58 58 58 58 55 58 61 65 58 55 55 48 52 45 42 48 45 42 52 39 42 39 39 35 42 39 39 35 42 42
35 32 48 55 61 58 58 55 55 55 52 52 52 45 48 55 58 55 48 55 55 48 55 58 65 55 58 52 55 52 48 42 45 45 45 45 42 35 35 39 35 42 35

GEFSSE_con_cape1000_324.txt.gz
Probability
35 52 77 77 71 81 77 77 77 68 68 68 71 74 84 77 77 77 65 61 58 61 68 68 68 58 48 48 42 42 42 48 48 52 52 55 52 61 58 58 52 52 68
35 48 81 77 77 74 74 68 68 65 68 68 65 68 81 71 68 61 61 65 68 68 61 65 61 55 45 42 39 39 35 39 52 52 52 52 58 61 61 58 58 55 68
42 48 74 90 84 77 74 68 65 68 68 68 65 68 71 71 65 61 61 58 61 61 58 52 55 52 55 52 42 39 39 35 42 48 48 35 45 61 61 61 61 65 65
42 52 48 94 90 68 65 61 68 68 68 65 65 65 68 65 68 61 52 45 52 48 42 45 48 52 48 48 48 35 32 23 19 42 32 19 32 52 55 55 58 61 61
42 55 65 77 74 61 61 65 68 61 65 65 65 61 58 55 58 58 48 42 39 45 35 35 45 45 48 45 39 32 26 23 29 35 35 32 32 55 55 55 55 58 55
42 39 55 77 71 61 65 55 61 65 61 68 65 58 55 52 55 48 29 39 39 35 39 42 52 42 45 45 39 32 32 32 35 23 29 35 32 52 52 48 52 52 52
35 35 52 77 71 68 61 48 58 52 52 58 52 58 58 55 48 39 39 32 35 39 39 35 39 39 35 32 35 32 29 32 32 26 32 35 32 55 55 48 48 42 48
35 39 52 77 65 65 61 48 55 55 58 55 55 58 52 48 48 39 29 26 29 32 35 35 39 39 35 29 29 42 35 42 23 19 29 29 45 55 48 45 42 42 42
32 39 39 45 48 58 58 45 45 45 48 48 55 58 55 48 42 39 35 32 26 32 32 32 35 39 35 35 39 39 39 52 39 19 16 19 45 52 45 48 45 42 45
29 39 39 39 48 35 52 52 55 48 55 48 45 48 45 42 42 39 42 39 39 39 39 35 32 35 42 39 42 42 48 52 26 13 19 29 58 48 42 42 42 39 45
23 26 29 42 48 45 35 45 58 55 48 52 52 48 61 45 39 48 39 52 48 42 39 35 42 45 48 45 52 65 55 23 13 13 19 32 58 55 55 45 45 42 42
13 19 26 35 29 29 26 52 61 55 58 58 48 52 52 61 52 42 48 61 48 48 45 42 52 52 42 29 35 58 35 29 19 26 19 42 61 45 52 55 52 45 42
16 16 29 29 45 32 39 45 61 61 71 55 48 48 58 45 42 32 35 45 55 48 39 48 52 32 29 48 48 35 32 32 26 19 19 45 45 45 48 42 45 52 58
10 10 16 32 39 52 45 55 58 55 58 55 58 48 61 68 58 48 55 48 52 45 55 58 52 42 39 42 42 45 35 29 26 35 32 55 52 45 48 45 45 45 45
23 19 39 52 48 48 65 65 45 65 55 61 65 58 65 65 74 65 71 71 55 52 55 58 61 52 52 45 42 39 39 35 39 42 32 58 55 58 55 52 45 42 42
23 26 35 42 58 68 68 71 61 65 74 61 68 65 58 68 74 77 68 77 71 68 65 65 61 55 61 55 58 48 45 42 35 48 32 45 61 55 58 65 55 52 52
23 32 52 55 55 68 74 71 68 58 58 65 65 65 58 65 77 77 68 77 74 74 71 68 68 58 52 55 55 52 45 55 35 45 52 52 52 55 52 55 61 61 55
39 52 52 42 61 71 71 71 71 65 61 65 68 68 68 68 71 71 74 68 68 65 65 74 71 61 61 55 61 61 61 58 52 55 45 58 52 45 52 58 61 61 58
52 61 61 61 65 68 74 74 71 77 74 74 74 71 68 65 68 68 71 68 65 68 68 55 68 74 61 68 58 58 61 65 65 58 55 61 65 55 52 55 65 58 55
52 61 58 71 71 68 68 74 77 74 74 74 77 77 77 71 65 68 68 61 65 58 65 68 71 74 74 68 45 61 61 58 61 68 61 58 65 61 61 58 61 48 58
55 68 68 71 68 68 68 71 71 71 71 71 71 71 71 68 65 68 68 71 68 58 58 58 61 68 68 65 61 55 55 52 55 58 58 61 55 61 61 65 55 55 39
61 68 71 74 68 71 74 74 74 71 71 71 68 65 68 74 71 55 68 68 68 68 71 61 58 68 52 52 61 45 48 48 52 39 48 52 55 58 52 55 55 61 58
58 68 58 71 71 71 74 71 68 71 68 65 65 65 61 58 58 65 68 68 71 65 65 61 58 52 52 55 61 52 48 48 42 52 48 48 55 55 52 58 61 55 58
55 52 68 71 71 68 74 74 74 71 68 65 65 61 68 61 58 68 65 68 68 65 61 61 52 58 61 58 65 61 65 52 48 48 48 52 48 42 42 42 45 55 48
55 55 65 74 77 74 74 68 81 71 68 65 61 65 68 68 65 61 65 74 71 65 65 65 65 68 68 68 65 65 61 58 55 58 48 45 45 45 52 42 45 52 45
52 52 61 71 81 77 71 71 77 74 74 71 65 65 68 68 68 68 68 71 68 68 68 68 71 71 71 71 68 68 68 61 55 55 55 52 39 42 39 48 39 42 45